This is the latest recevied weather packets stored in our database for station/object DB0NU-15. If no packets are shown the sender has not sent any weather packets the latest 10 day(s).
| Time | Temp. | Humidity | Pressure | Rain* | Wind** | Luminosity | Snow |
|---|---|---|---|---|---|---|---|
| 1777885225 | 19.44° C | 50% | 1015.8 hPa | 0 mm | - | - | - |
| 1777884868 | 18.89° C | 48% | 1015.8 hPa | 0 mm | - | - | - |
| 1777884621 | 18.89° C | 48% | 1015.8 hPa | 0 mm | - | - | - |
| 1777884018 | 19.44° C | 47% | 1015.8 hPa | 0 mm | - | - | - |
| 1777883475 | 19.44° C | 46% | 1015.8 hPa | 0 mm | - | - | - |
| 1777882872 | 18.89° C | 50% | 1015.8 hPa | 0 mm | - | - | - |
| 1777882268 | 17.22° C | 52% | 1015.8 hPa | 0 mm | - | - | - |
| 1777881061 | 17.22° C | 53% | 1015.6 hPa | 0 mm | - | - | - |
| 1777879854 | 16.67° C | 52% | 1015.7 hPa | 0 mm | - | - | - |
| 1777879251 | 17.22° C | 56% | 1015.8 hPa | 0 mm | - | - | - |
| 1777878647 | 17.78° C | 58% | 1015.7 hPa | 0 mm | - | - | - |
| 1777878044 | 16.67° C | 60% | 1015.5 hPa | 0 mm | - | - | - |
| 1777876837 | 14.44° C | 66% | 1015.6 hPa | 0 mm | - | - | - |
| 1777876234 | 14.44° C | 65% | 1015.5 hPa | 0 mm | - | - | - |
| 1777875630 | 13.89° C | 67% | 1015.4 hPa | 0 mm | - | - | - |
| 1777875027 | 13.89° C | 66% | 1015.4 hPa | 0 mm | - | - | - |
| 1777874424 | 14.44° C | 66% | 1015.4 hPa | 0 mm | - | - | - |
| 1777873820 | 14.44° C | 64% | 1015.4 hPa | 0 mm | - | - | - |
| 1777873217 | 13.89° C | 63% | 1015.3 hPa | 0 mm | - | - | - |
| 1777872673 | 13.89° C | 65% | 1015.2 hPa | 0 mm | - | - | - |
| 1777872070 | 13.33° C | 66% | 1015.1 hPa | 0 mm | - | - | - |
| 1777871467 | 12.78° C | 71% | 1015.2 hPa | 0 mm | - | - | - |
| 1777870863 | 12.22° C | 72% | 1015.2 hPa | 0 mm | - | - | - |
| 1777870259 | 12.22° C | 72% | 1015.2 hPa | 0 mm | - | - | - |
| 1777869656 | 12.22° C | 71% | 1015.3 hPa | 0 mm | - | - | - |
* Rain latest hour (hover to see other rain measurements)
** Current wind speed in m/s (hover to see current wind gust speed)